• In Uzbekistan
  • List of Countries
  • For 7 days
  • Water Temperature
  • Satellite Maps
  • Weather Map
  • Weather Widgets
  • user-avatar
    Login

    Hourly Weather Abovyan

    Today, 26 February, Sunday

    Time Temperature Precipitation Wind Pressure Humidity
    00:00 -4°C° 0 mm 1 mps 672 mmHg 91%
    01:00 -4°C° 0 mm 1 mps 671 mmHg 90%
    02:00 -4°C° 0 mm 1 mps 671 mmHg 90%
    03:00 -4°C° 0 mm 1 mps 671 mmHg 90%
    04:00 -4°C° 0 mm 1 mps 671 mmHg 90%
    05:00 -4°C° 0 mm 1 mps 671 mmHg 90%
    06:00 -4°C° 0 mm 1 mps 671 mmHg 90%
    07:00 -2°C° 0 mm 1 mps 671 mmHg 88%
    08:00 +1°C° 0 mm 1 mps 672 mmHg 87%
    09:00 +4°C° 0 mm 1 mps 672 mmHg 85%
    10:00 +5°C° 0 mm 1 mps 672 mmHg 85%
    11:00 +6°C° 0 mm 1 mps 672 mmHg 85%
    12:00 +7°C° 0 mm 1 mps 671 mmHg 85%
    13:00 +7°C° 0 mm 1 mps 671 mmHg 85%
    14:00 +7°C° 0 mm 1 mps 671 mmHg 86%
    15:00 +7°C° 0 mm 1 mps 670 mmHg 87%
    16:00 +5°C° 0 mm 1 mps 670 mmHg 90%
    17:00 +2°C° 0 mm 1 mps 670 mmHg 92%
    18:00 -1°C° 0 mm 1 mps 669 mmHg 94%
    19:00 -2°C° 0 mm 1 mps 669 mmHg 94%
    20:00 -2°C° 0 mm 1 mps 670 mmHg 93%
    21:00 -3°C° 0 mm 1 mps 670 mmHg 93%
    22:00 -3°C° 0 mm 1 mps 670 mmHg 93%
    23:00 -3°C° 0 mm 1 mps 670 mmHg 93%

    Tomorrow, 27 February, Monday

    Time Temperature Precipitation Wind Pressure Humidity
    00:00 -3°C° 0 mm 1 mps 670 mmHg 93%
    01:00 -4°C° 0 mm 1 mps 670 mmHg 93%
    02:00 -4°C° 0 mm 1 mps 670 mmHg 92%
    03:00 -6°C° 0 mm 0 mps 670 mmHg 92%
    04:00 -6°C° 0 mm 0 mps 670 mmHg 92%
    05:00 -6°C° 0 mm 0 mps 670 mmHg 92%
    06:00 -6°C° 0 mm 0 mps 670 mmHg 92%
    07:00 -3°C° 0 mm 0 mps 671 mmHg 89%
    08:00 0°C° 0 mm 0 mps 673 mmHg 85%
    09:00 +4°C° 0 mm 0 mps 674 mmHg 82%
    10:00 +6°C° 0 mm 1 mps 674 mmHg 83%
    11:00 +6°C° 0 mm 1 mps 673 mmHg 84%
    12:00 +7°C° 0 mm 1 mps 673 mmHg 84%
    13:00 +7°C° 0 mm 1 mps 672 mmHg 85%
    14:00 +7°C° 0 mm 1 mps 672 mmHg 86%
    15:00 +7°C° 0 mm 1 mps 672 mmHg 86%
    16:00 +5°C° 0 mm 1 mps 671 mmHg 89%
    17:00 +2°C° 0 mm 1 mps 670 mmHg 92%
    18:00 0°C° 0 mm 1 mps 670 mmHg 95%
    19:00 -1°C° 0 mm 1 mps 670 mmHg 94%
    20:00 -2°C° 0 mm 1 mps 670 mmHg 94%
    21:00 -3°C° 0 mm 1 mps 670 mmHg 93%
    22:00 -3°C° 0 mm 1 mps 670 mmHg 92%
    23:00 -3°C° 0 mm 1 mps 670 mmHg 91%

    Day after tomorrow, 28 February, Tuesday

    Time Temperature Precipitation Wind Pressure Humidity
    00:00 -3°C° 0 mm 1 mps 670 mmHg 90%
    01:00 -3°C° 0 mm 1 mps 670 mmHg 90%
    02:00 -3°C° 0 mm 1 mps 670 mmHg 89%
    03:00 -3°C° 0 mm 1 mps 670 mmHg 89%
    04:00 -3°C° 0 mm 1 mps 670 mmHg 89%
    05:00 -3°C° 0 mm 1 mps 670 mmHg 88%
    06:00 -3°C° 0 mm 1 mps 670 mmHg 88%
    07:00 0°C° 0 mm 1 mps 671 mmHg 85%
    08:00 +3°C° 0 mm 1 mps 672 mmHg 82%
    09:00 +6°C° 0 mm 1 mps 673 mmHg 80%
    10:00 +6°C° 0 mm 1 mps 673 mmHg 80%
    11:00 +7°C° 0 mm 1 mps 673 mmHg 80%
    12:00 +8°C° 0 mm 1 mps 673 mmHg 80%
    13:00 +8°C° 0 mm 1 mps 672 mmHg 80%
    14:00 +8°C° 0 mm 1 mps 672 mmHg 81%
    15:00 +9°C° 0 mm 1 mps 672 mmHg 81%
    16:00 +6°C° 0 mm 1 mps 672 mmHg 84%
    17:00 +3°C° 0 mm 1 mps 671 mmHg 87%
    18:00 +1°C° 0 mm 1 mps 670 mmHg 90%
    19:00 0°C° 0 mm 1 mps 671 mmHg 90%
    20:00 0°C° 0 mm 1 mps 671 mmHg 90%
    21:00 -1°C° 0 mm 1 mps 672 mmHg 90%
    22:00 -2°C° 0 mm 1 mps 672 mmHg 90%
    23:00 -2°C° 0 mm 1 mps 671 mmHg 90%

    1 March, Wednesday

    Time Temperature Precipitation Wind Pressure Humidity
    00:00 -3°C° 0 mm 1 mps 671 mmHg 90%
    01:00 -3°C° 0 mm 1 mps 671 mmHg 89%
    02:00 -3°C° 0 mm 1 mps 671 mmHg 87%
    03:00 -3°C° 0 mm 1 mps 671 mmHg 86%
    04:00 -3°C° 0 mm 1 mps 671 mmHg 85%
    05:00 -3°C° 0 mm 1 mps 672 mmHg 85%
    06:00 -3°C° 0 mm 1 mps 672 mmHg 84%
    07:00 0°C° 0 mm 1 mps 673 mmHg 82%
    08:00 +3°C° 0 mm 1 mps 674 mmHg 79%
    09:00 +6°C° 0 mm 1 mps 675 mmHg 77%
    10:00 +7°C° 0 mm 1 mps 674 mmHg 77%
    11:00 +8°C° 0 mm 1 mps 674 mmHg 77%
    12:00 +9°C° 0 mm 1 mps 674 mmHg 77%
    13:00 +9°C° 0 mm 1 mps 673 mmHg 77%
    14:00 +10°C° 0 mm 1 mps 673 mmHg 77%
    15:00 +10°C° 0 mm 1 mps 672 mmHg 77%
    16:00 +7°C° 0 mm 1 mps 672 mmHg 81%
    17:00 +5°C° 0 mm 1 mps 671 mmHg 85%
    18:00 +3°C° 0 mm 1 mps 671 mmHg 88%
    19:00 +2°C° 0 mm 1 mps 671 mmHg 88%
    20:00 +1°C° 0 mm 1 mps 671 mmHg 87%
    21:00 +1°C° 0 mm 1 mps 671 mmHg 87%
    22:00 0°C° 0 mm 1 mps 670 mmHg 86%
    23:00 0°C° 0 mm 1 mps 670 mmHg 85%

    2 March, Thursday

    Time Temperature Precipitation Wind Pressure Humidity
    00:00 -1°C° 0 mm 1 mps 669 mmHg 84%
    01:00 -1°C° 0 mm 1 mps 669 mmHg 85%
    02:00 -1°C° 0 mm 1 mps 669 mmHg 85%
    03:00 -2°C° 0 mm 1 mps 668 mmHg 85%
    04:00 -1°C° 0 mm 1 mps 668 mmHg 85%
    05:00 -1°C° 0 mm 1 mps 668 mmHg 84%
    06:00 0°C° 0 mm 1 mps 668 mmHg 84%
    07:00 +2°C° 0 mm 1 mps 668 mmHg 81%
    08:00 +5°C° 0 mm 1 mps 669 mmHg 78%
    09:00 +6°C° 0 mm 0 mps 669 mmHg 75%
    10:00 +8°C° 0 mm 1 mps 668 mmHg 73%
    11:00 +9°C° 0 mm 1 mps 668 mmHg 72%
    12:00 +10°C° 0 mm 1 mps 667 mmHg 71%
    13:00 +10°C° 0 mm 1 mps 667 mmHg 72%
    14:00 +10°C° 0 mm 1 mps 666 mmHg 73%
    15:00 +10°C° 0 mm 1 mps 666 mmHg 75%
    16:00 +9°C° 0.1 mm 1 mps 666 mmHg 78%
    17:00 +7°C° 0.1 mm 1 mps 665 mmHg 82%
    18:00 +6°C° 0.1 mm 1 mps 665 mmHg 85%
    19:00 +5°C° 0.2 mm 1 mps 665 mmHg 85%
    20:00 +5°C° 0.2 mm 1 mps 666 mmHg 84%
    21:00 +5°C° 0.2 mm 1 mps 666 mmHg 84%
    22:00 +5°C° 0.3 mm 1 mps 666 mmHg 84%
    23:00 +4°C° 0.3 mm 0 mps 666 mmHg 85%

    3 March, Friday

    Time Temperature Precipitation Wind Pressure Humidity
    00:00 +3°C° 0.3 mm 0 mps 665 mmHg 85%
    01:00 +3°C° 0.3 mm 0 mps 665 mmHg 87%
    02:00 +2°C° 0.3 mm 0 mps 665 mmHg 89%
    03:00 +2°C° 0.3 mm 0 mps 665 mmHg 90%
    04:00 +2°C° 0.2 mm 0 mps 665 mmHg 90%
    05:00 +2°C° 0.2 mm 0 mps 664 mmHg 91%
    06:00 +1°C° 0.2 mm 0 mps 664 mmHg 91%
    07:00 +3°C° 0.2 mm 0 mps 665 mmHg 87%
    08:00 +4°C° 0.2 mm 0 mps 665 mmHg 84%
    09:00 +7°C° 0.2 mm 1 mps 666 mmHg 80%
    10:00 +7°C° 0.3 mm 1 mps 666 mmHg 79%
    11:00 +8°C° 0.3 mm 1 mps 666 mmHg 78%
    12:00 +8°C° 0.3 mm 1 mps 666 mmHg 77%
    13:00 +9°C° 0.4 mm 1 mps 665 mmHg 77%
    14:00 +9°C° 0.4 mm 1 mps 665 mmHg 77%
    15:00 +9°C° 0.4 mm 1 mps 665 mmHg 78%
    16:00 +8°C° 0.2 mm 1 mps 665 mmHg 81%
    17:00 +6°C° 0.2 mm 1 mps 665 mmHg 85%
    18:00 +5°C° 0.2 mm 1 mps 665 mmHg 89%
    19:00 +5°C° 0.2 mm 1 mps 666 mmHg 89%
    20:00 +5°C° 0.2 mm 1 mps 666 mmHg 89%
    21:00 +5°C° 0.2 mm 1 mps 667 mmHg 88%
    22:00 +4°C° 0.2 mm 1 mps 667 mmHg 89%
    23:00 +4°C° 0.2 mm 1 mps 667 mmHg 89%
    Show more